Location: Foligno
(42.9600°N, 12.7050°E)
Time: 08:23:31
(UTC+02:00)

ISS - Pass Details

Date: 16 May 2018
Orbit: 402 x 407 km, 51.6° (Epoch: 26 May)

Event Time Altitude Azimuth Distance (km) Brightness Sun altitude
Exits shadow 01:56:53 22° 17° (NNE) 940 -1.3 -26.9°
Drops below altitude 10° 01:58:35 10° 42° (NE) 1,458 -0.2 -26.8°
Sets 02:00:52 0° 55° (NE) 2,319 0.7 -26.7°
